Weather in Aksenovo

Russia / Pskov Oblast     56°49′50″N   29°30′57″E
temp.,
°C
wind,
m/s
gust,
m/s
humid.,
%
clouds,
%
prec.,
mm/h
press.,
hPa
HPBL,
m
20 june, sun
sun2000:00+17s26830 0.0 1021111
03:00+16s26960 0.0 1021107
06:00+18s27920 0.0 1021184
09:00+24ssw35664 0.0 1020588
12:00+28ssw35470 0.0 10201767
15:00+30sw354075 0.0 10182596
18:00+24s2368100 0.1 101861
21:00+22se22814 0.8 101815
21 june, mon
mon2100:00+21ssw268723 0.6 1018142
03:00+18s24961 0.6 101970
06:00+19s26947 0.0 1019154
09:00+24sse356583 0.0 1018562
12:00+28sse454696 0.0 10181269
15:00+30se34375 0.0 10171688
18:00+29se4547100 0.0 10161167
21:00+23se387693 0.0 1017163
22 june, tue
tue2200:00+19sse310815 0.0 1017197
03:00+18se3108111 0.0 1017214
06:00+19se388777 0.0 1017208
09:00+24se4869100 0.0 1016585
12:00+28sse5949100 0.0 10161522
15:00+30sse58405 0.0 10152154
18:00+30s484699 0.0 10152205
21:00+24s397357 0.0 1015284
23 june, wed
wed2300:00+21s2108596 0.0 1016231
03:00+20s289464 0.0 1017158
06:00+21sse278866 0.0 1017210
09:00+26s36597 0.0 1017564
12:00+30s57385 0.0 10171584
15:00+32s46345 0.0 10172199
18:00+31s46415 0.0 10162355
21:00+25ssw227410 0.0 101727
24 june, thu
thu2400:00+22ssw23805 0.0 101839
03:00+20s26935 0.0 1018116
06:00+22s27904 0.1 1018189
09:00+27ssw35653 0.1 1018552
12:00+31ssw35470 0.0 10171937
15:00+34ssw463431 0.0 10163207
18:00+31s58410 0.0 10151332
21:00+19nnw51096100 2.7 1018351